ERS-2

Last updated on Wed Feb 21 2024 00:02:09 GMT+0000 (Coordinated Universal Time)

1 23560U 95021A 24051.78009113 .05383362 31600-5 12559-2 0 9993 2 23560 98.4941 70.6330 0006122 282.7503 77.3183 16.29810750547947
UTC large
Height (km)
Speed (km/s)
/
Latitude / Longitude
Inclination (degrees)
Orbital Period (minutes)
Azimuth
Elevation
Range (km)
Doppler Factor

Next 0 passes for location: London (51.5072 / 0.1276)

Sorry there are no passes over London.